Flag for U.S.A. Weather past 2 weeks in Flint, Michigan, U.S.A.

Now
73 °F

Light rain. Overcast.


Feels Like: 77 °F
Forecast: 52 / 81 °F
Wind: 9 mph from Southwest

Location: Bishop International Airport

Current Time: May 24, 2015 at 6:07:10 PM

Latest Report: May 24, 2015 at 4:53 PM


Visibility: 10 mi

Pressure: 30.18 "Hg

Humidity: 48%

Dew point: 52 °F

Location of FlintLocation

Historic Weather in Flint — Graph

°F

Flint temperature yesterday

Maximum temperature yesterday: 76 °F (at 3:53 PM)
Minimum temperature yesterday: 36 °F (at 5:53 AM)
Average temperature yesterday: 59 °F

Past Weeks' High & Low Weather Summary

 TemperatureHumidityPressure
High84 °F (May 18, 2:53 PM)93% (May 10, 11:53 PM)30.49 "Hg (May 10, 11:53 PM)
Low36 °F (May 23, 5:53 AM)21% (May 22, 6:53 PM)29.74 "Hg (May 11, 6:53 PM)
Average60 °F64%30.11 "Hg
* Reported May 9 4:53 PM — May 24 4:53 PM, Flint, Weather by CustomWeather, © 2015

Note: Actual official high and low records may vary slightly from our data, if they occured in-between our weather recording intervals... More about our weather records

Advertising

Flint weather history for previous 24 hours

 ConditionsComfort  
Time TempWeatherWind HumidityBarometerVisibility
4:53 PM
Sun, May 24
73 °FLight rain. Overcast.9 mph48%30.18 "Hg10 mi
3:53 PM77 °FOvercast.5 mph40%30.17 "Hg10 mi
2:53 PM76 °FPartly sunny.7 mph40%30.19 "Hg10 mi
1:53 PM75 °FLight rain. Mostly cloudy.8 mph43%30.22 "Hg10 mi
12:53 PM77 °FSunny.9 mph39%30.22 "Hg10 mi
11:53 AM77 °FSunny.10 mph40%30.23 "Hg10 mi
10:53 AM76 °FSunny.7 mph39%30.23 "Hg10 mi
9:53 AM74 °FSunny.6 mph41%30.23 "Hg10 mi
8:53 AM68 °FSunny.7 mph49%30.24 "Hg10 mi
7:53 AM66 °FSunny.8 mph49%30.25 "Hg10 mi
6:53 AM63 °FOvercast.7 mph52%30.25 "Hg10 mi
5:53 AM58 °FOvercast.5 mph62%30.24 "Hg10 mi
4:53 AM60 °FOvercast.6 mph56%30.23 "Hg10 mi
3:53 AM55 °FOvercast.No wind69%30.24 "Hg10 mi
2:53 AM51 °FPassing clouds.No wind71%30.25 "Hg10 mi
1:53 AM51 °FClear.3 mph71%30.25 "Hg10 mi
12:53 AM56 °FClear.No wind60%30.26 "Hg10 mi
11:53 PM
Sat, May 23
60 °FClear.8 mph49%30.26 "Hg10 mi
10:53 PM56 °FClear.3 mph65%30.26 "Hg10 mi
9:53 PM65 °FSunny.6 mph33%30.24 "Hg10 mi
8:53 PM70 °FSunny.3 mph27%30.24 "Hg10 mi
7:53 PM73 °FSunny.7 mph23%30.25 "Hg10 mi
6:53 PM75 °FSunny.9 mph21%30.27 "Hg10 mi
Weather by CustomWeather, © 2015

See weather overviewHow to use our weather pages